When you browse on this site, cookies collect data to enhance your experience and personalize the content and advertising you see.
Visit our Privacy Policy to learn more. By continuing to use the site, you agree to this use of cookies and data.
  • Em Portugal
  • Lista de países
  • Para 7 dias
  • Temperatura da água
  • Mapa do tempo
  • Widgets de tempo
  • user-avatar
    Iniciar Sessão

    Previsão horária em Pomorie

    Hoje, 29 Maio, Sexta-feira

    Tempo Temperatura Precipitação Vento Pressão Humidade
    00:00 +12°C° 0 mm 2 m/s 761 mmHg 86%
    01:00 +12°C° 0 mm 2 m/s 761 mmHg 87%
    02:00 +12°C° 0 mm 2 m/s 761 mmHg 87%
    03:00 +12°C° 0 mm 2 m/s 761 mmHg 88%
    04:00 +12°C° 0 mm 2 m/s 761 mmHg 88%
    05:00 +12°C° 0 mm 2 m/s 761 mmHg 89%
    06:00 +13°C° 0 mm 2 m/s 761 mmHg 86%
    07:00 +15°C° 0 mm 2 m/s 761 mmHg 82%
    08:00 +17°C° 0 mm 3 m/s 761 mmHg 79%
    09:00 +18°C° 0.5 mm 2 m/s 761 mmHg 75%
    10:00 +20°C° 0.5 mm 1 m/s 761 mmHg 71%
    11:00 +21°C° 0.5 mm 1 m/s 761 mmHg 66%
    12:00 +20°C° 0.7 mm 2 m/s 761 mmHg 65%
    13:00 +20°C° 0.7 mm 2 m/s 760 mmHg 64%
    14:00 +21°C° 0.7 mm 3 m/s 760 mmHg 62%
    15:00 +20°C° 0.3 mm 3 m/s 760 mmHg 66%
    16:00 +20°C° 0.3 mm 3 m/s 760 mmHg 69%
    17:00 +19°C° 0.3 mm 3 m/s 760 mmHg 72%
    18:00 +18°C° 0 mm 3 m/s 760 mmHg 78%
    19:00 +16°C° 0 mm 3 m/s 760 mmHg 83%
    20:00 +13°C° 0 mm 3 m/s 760 mmHg 88%
    21:00 +14°C° 0 mm 2 m/s 760 mmHg 88%
    22:00 +14°C° 0 mm 2 m/s 760 mmHg 89%
    23:00 +13°C° 0 mm 2 m/s 760 mmHg 89%

    Amanhã, 30 Maio, Sábado

    Tempo Temperatura Precipitação Vento Pressão Humidade
    00:00 +13°C° 0 mm 2 m/s 760 mmHg 88%
    01:00 +13°C° 0 mm 2 m/s 760 mmHg 88%
    02:00 +13°C° 0 mm 2 m/s 760 mmHg 87%
    03:00 +13°C° 0 mm 2 m/s 760 mmHg 86%
    04:00 +13°C° 0 mm 2 m/s 760 mmHg 85%
    05:00 +13°C° 0 mm 2 m/s 760 mmHg 84%
    06:00 +14°C° 0 mm 3 m/s 760 mmHg 80%
    07:00 +16°C° 0 mm 3 m/s 760 mmHg 76%
    08:00 +18°C° 0 mm 3 m/s 760 mmHg 72%
    09:00 +19°C° 0.2 mm 3 m/s 760 mmHg 68%
    10:00 +20°C° 0.2 mm 2 m/s 760 mmHg 65%
    11:00 +21°C° 0.2 mm 2 m/s 760 mmHg 62%
    12:00 +23°C° 0.3 mm 2 m/s 760 mmHg 61%
    13:00 +22°C° 0.3 mm 3 m/s 760 mmHg 61%
    14:00 +24°C° 0.3 mm 3 m/s 759 mmHg 60%
    15:00 +22°C° 0.4 mm 3 m/s 759 mmHg 63%
    16:00 +22°C° 0.4 mm 3 m/s 759 mmHg 65%
    17:00 +22°C° 0.4 mm 3 m/s 759 mmHg 67%
    18:00 +20°C° 0.2 mm 3 m/s 759 mmHg 73%
    19:00 +18°C° 0.2 mm 3 m/s 759 mmHg 79%
    20:00 +17°C° 0.2 mm 2 m/s 759 mmHg 85%
    21:00 +16°C° 0 mm 2 m/s 760 mmHg 85%
    22:00 +16°C° 0 mm 2 m/s 760 mmHg 86%
    23:00 +15°C° 0 mm 2 m/s 760 mmHg 86%

    Depois de amanhã, 31 Maio, Domingo

    Tempo Temperatura Precipitação Vento Pressão Humidade
    00:00 +15°C° 0 mm 2 m/s 760 mmHg 87%
    01:00 +15°C° 0 mm 2 m/s 760 mmHg 88%
    02:00 +14°C° 0 mm 2 m/s 759 mmHg 89%
    03:00 +14°C° 0 mm 2 m/s 759 mmHg 89%
    04:00 +14°C° 0 mm 2 m/s 759 mmHg 89%
    05:00 +14°C° 0 mm 2 m/s 759 mmHg 89%
    06:00 +16°C° 0 mm 2 m/s 759 mmHg 84%
    07:00 +18°C° 0 mm 2 m/s 760 mmHg 79%
    08:00 +19°C° 0 mm 2 m/s 760 mmHg 74%
    09:00 +21°C° 0.1 mm 1 m/s 760 mmHg 71%
    10:00 +22°C° 0.1 mm 1 m/s 760 mmHg 68%
    11:00 +23°C° 0.1 mm 1 m/s 760 mmHg 64%
    12:00 +23°C° 1.4 mm 2 m/s 759 mmHg 68%
    13:00 +21°C° 1.4 mm 2 m/s 759 mmHg 72%
    14:00 +21°C° 1.4 mm 2 m/s 759 mmHg 76%
    15:00 +20°C° 0.6 mm 2 m/s 759 mmHg 78%
    16:00 +20°C° 0.6 mm 2 m/s 759 mmHg 80%
    17:00 +19°C° 0.6 mm 2 m/s 758 mmHg 82%
    18:00 +19°C° 0.2 mm 2 m/s 758 mmHg 84%
    19:00 +18°C° 0.2 mm 2 m/s 758 mmHg 86%
    20:00 +17°C° 0.2 mm 2 m/s 758 mmHg 88%
    21:00 +16°C° 0.2 mm 2 m/s 758 mmHg 89%
    22:00 +16°C° 0.2 mm 2 m/s 759 mmHg 89%
    23:00 +16°C° 0.2 mm 2 m/s 759 mmHg 90%

    1 Junho, Segunda-feira

    Tempo Temperatura Precipitação Vento Pressão Humidade
    00:00 +16°C° 0.1 mm 1 m/s 758 mmHg 90%
    01:00 +15°C° 0.1 mm 1 m/s 758 mmHg 90%
    02:00 +15°C° 0.1 mm 1 m/s 758 mmHg 90%
    03:00 +15°C° 0.1 mm 1 m/s 758 mmHg 90%
    04:00 +15°C° 0.1 mm 2 m/s 758 mmHg 90%
    05:00 +14°C° 0.1 mm 2 m/s 758 mmHg 90%
    06:00 +16°C° 0 mm 2 m/s 758 mmHg 88%
    07:00 +17°C° 0 mm 2 m/s 759 mmHg 85%
    08:00 +18°C° 0 mm 2 m/s 759 mmHg 83%
    09:00 +19°C° 0.1 mm 3 m/s 759 mmHg 78%
    10:00 +20°C° 0.1 mm 3 m/s 759 mmHg 73%
    11:00 +21°C° 0.1 mm 4 m/s 759 mmHg 69%
    12:00 +21°C° 0.5 mm 3 m/s 759 mmHg 70%
    13:00 +21°C° 0.5 mm 3 m/s 759 mmHg 71%
    14:00 +21°C° 0.5 mm 3 m/s 759 mmHg 72%
    15:00 +21°C° 0.6 mm 3 m/s 758 mmHg 75%
    16:00 +20°C° 0.6 mm 2 m/s 758 mmHg 78%
    17:00 +19°C° 0.6 mm 2 m/s 758 mmHg 82%
    18:00 +18°C° 0.1 mm 2 m/s 758 mmHg 85%
    19:00 +17°C° 0.1 mm 2 m/s 758 mmHg 88%
    20:00 +16°C° 0.1 mm 2 m/s 758 mmHg 90%
    21:00 +16°C° 0 mm 2 m/s 759 mmHg 91%
    22:00 +15°C° 0 mm 1 m/s 759 mmHg 91%
    23:00 +15°C° 0 mm 1 m/s 759 mmHg 92%

    2 Junho, Terça-feira

    Tempo Temperatura Precipitação Vento Pressão Humidade
    00:00 +15°C° 0 mm 1 m/s 759 mmHg 92%
    01:00 +14°C° 0 mm 2 m/s 759 mmHg 92%
    02:00 +14°C° 0 mm 2 m/s 759 mmHg 92%
    03:00 +14°C° 0 mm 2 m/s 759 mmHg 93%
    04:00 +14°C° 0 mm 2 m/s 759 mmHg 93%
    05:00 +14°C° 0 mm 2 m/s 759 mmHg 93%
    06:00 +16°C° 0 mm 2 m/s 759 mmHg 89%
    07:00 +17°C° 0 mm 2 m/s 759 mmHg 85%
    08:00 +18°C° 0 mm 2 m/s 760 mmHg 81%
    09:00 +20°C° 0 mm 3 m/s 760 mmHg 75%
    10:00 +21°C° 0 mm 3 m/s 760 mmHg 69%
    11:00 +22°C° 0 mm 4 m/s 760 mmHg 63%
    12:00 +22°C° 0 mm 4 m/s 759 mmHg 61%
    13:00 +22°C° 0 mm 4 m/s 759 mmHg 60%
    14:00 +22°C° 0 mm 4 m/s 759 mmHg 59%
    15:00 +22°C° 0 mm 4 m/s 759 mmHg 61%
    16:00 +21°C° 0 mm 3 m/s 759 mmHg 64%
    17:00 +21°C° 0 mm 3 m/s 758 mmHg 67%
    18:00 +19°C° 0 mm 2 m/s 759 mmHg 74%
    19:00 +17°C° 0 mm 2 m/s 759 mmHg 81%
    20:00 +15°C° 0 mm 1 m/s 759 mmHg 88%
    21:00 +15°C° 0 mm 1 m/s 759 mmHg 88%
    22:00 +15°C° 0 mm 1 m/s 759 mmHg 88%
    23:00 +14°C° 0 mm 1 m/s 759 mmHg 88%

    3 Junho, Quarta-feira

    Tempo Temperatura Precipitação Vento Pressão Humidade
    00:00 +14°C° 0 mm 1 m/s 759 mmHg 88%
    01:00 +14°C° 0 mm 1 m/s 759 mmHg 88%
    02:00 +14°C° 0 mm 2 m/s 758 mmHg 88%
    03:00 +14°C° 0 mm 2 m/s 758 mmHg 87%
    04:00 +14°C° 0 mm 2 m/s 758 mmHg 87%
    05:00 +14°C° 0 mm 2 m/s 758 mmHg 87%
    06:00 +16°C° 0 mm 2 m/s 759 mmHg 81%
    07:00 +17°C° 0 mm 2 m/s 759 mmHg 76%
    08:00 +19°C° 0 mm 3 m/s 759 mmHg 70%
    09:00 +20°C° 0 mm 3 m/s 759 mmHg 69%
    10:00 +21°C° 0 mm 3 m/s 760 mmHg 67%
    11:00 +22°C° 0 mm 4 m/s 760 mmHg 66%
    12:00 +22°C° 0.2 mm 4 m/s 760 mmHg 68%
    13:00 +22°C° 0.2 mm 5 m/s 760 mmHg 69%
    14:00 +22°C° 0.2 mm 5 m/s 759 mmHg 71%
    15:00 +21°C° 0.1 mm 5 m/s 759 mmHg 73%
    16:00 +20°C° 0.1 mm 5 m/s 759 mmHg 75%
    17:00 +20°C° 0.1 mm 5 m/s 759 mmHg 76%
    18:00 +18°C° 0 mm 4 m/s 759 mmHg 82%
    19:00 +17°C° 0 mm 4 m/s 760 mmHg 87%
    20:00 +16°C° 0 mm 3 m/s 760 mmHg 93%
    21:00 +15°C° 0 mm 2 m/s 760 mmHg 93%
    22:00 +15°C° 0 mm 2 m/s 760 mmHg 93%
    23:00 +14°C° 0 mm 1 m/s 761 mmHg 93%
    Mostrar mais